Estación de Las Viñas

Ultimos registro cada 15 minutos 75
Estación Fecha / Hora Temperatura Humedad Lluvia Velocidad Dirección Radiación Presion
75 Las Viñas 07-05-2026 18:45 8,9 88 0 0 140 0 1027,5
74 Las Viñas 07-05-2026 18:30 9,2 87 0 0 143 0 1027,5
73 Las Viñas 07-05-2026 18:15 9,4 85 0 0 143 0 1027,4
72 Las Viñas 07-05-2026 18:00 9,7 83 0 0,4 169 0 1027,8
71 Las Viñas 07-05-2026 17:45 10 82 0 0 169 0 1027,8
70 Las Viñas 07-05-2026 17:30 10,3 81 0 0 169 11 1027,9
69 Las Viñas 07-05-2026 17:15 10,4 81 0 0 169 42 1027,7
68 Las Viñas 07-05-2026 17:00 10,6 79 0 0 169 30 1027,4
67 Las Viñas 07-05-2026 16:45 10,7 81 0 0 169 79 1027,5
66 Las Viñas 07-05-2026 16:30 10,9 83 0 0 169 42 1028,3
65 Las Viñas 07-05-2026 16:15 11,1 80 0 0 169 46 1028,1
64 Las Viñas 07-05-2026 16:00 11,2 77 0 0 169 37 1028
63 Las Viñas 07-05-2026 15:45 11,2 75 0 0 169 70 1027,8
62 Las Viñas 07-05-2026 15:30 11,2 74 0 0 169 102 1027,7
61 Las Viñas 07-05-2026 15:15 11,3 76 0 0 196 84 1028,1
60 Las Viñas 07-05-2026 15:00 11,6 77 0 0 196 91 1028,1
59 Las Viñas 07-05-2026 14:45 11,7 73 0 0 210 95 1028
58 Las Viñas 07-05-2026 14:30 11,7 73 0 0 185 134 1028
57 Las Viñas 07-05-2026 14:15 11,7 74 0 0 185 165 1028,3
56 Las Viñas 07-05-2026 14:00 11,8 74 0 0 185 169 1028,3
55 Las Viñas 07-05-2026 13:45 11,8 73 0 0 185 185 1028,5
54 Las Viñas 07-05-2026 13:30 11,7 71 0 0 160 271 1028,1
53 Las Viñas 07-05-2026 13:15 11,6 76 0 0 160 244 1028,4
52 Las Viñas 07-05-2026 13:00 11,4 71 0 0 160 232 1028,4
51 Las Viñas 07-05-2026 12:45 11,5 76 0 0 138 278 1028,9
50 Las Viñas 07-05-2026 12:30 11,6 74 0 0 175 236 1029
49 Las Viñas 07-05-2026 12:15 12 76 0 0 243 183 1029,1
48 Las Viñas 07-05-2026 12:00 11,9 78 0 0 180 575 1029
47 Las Viñas 07-05-2026 11:45 11,4 80 0 0 164 610 1029,1
46 Las Viñas 07-05-2026 11:30 11,1 84 0 0 152 454 1029,4
45 Las Viñas 07-05-2026 11:15 10,9 85 0 0 149 292 1029,6
44 Las Viñas 07-05-2026 11:00 10,3 87 0 0 214 253 1029,2
43 Las Viñas 07-05-2026 10:45 10,1 87 0 0 162 236 1029,2
42 Las Viñas 07-05-2026 10:30 9,7 80 0 0,4 156 425 1029,3
41 Las Viñas 07-05-2026 10:15 9,1 77 0 0 189 408 1029,3
40 Las Viñas 07-05-2026 10:00 8,6 77 0 0 189 244 1029,2
39 Las Viñas 07-05-2026 09:45 8,4 77 0 0 189 158 1029,2
38 Las Viñas 07-05-2026 09:30 8,3 76 0 0 189 113 1029,2
37 Las Viñas 07-05-2026 09:15 8,2 75 0 0 185 179 1029,1
36 Las Viñas 07-05-2026 09:00 7,9 76 0 0 149 102 1028,7
35 Las Viñas 07-05-2026 08:45 7,7 76 0 0 139 54 1028,5
34 Las Viñas 07-05-2026 08:30 7,6 77 0 0 139 46 1028,2
33 Las Viñas 07-05-2026 08:15 7,5 78 0 0 139 30 1027,9
32 Las Viñas 07-05-2026 07:45 7,6 78 0 0 139 16 1027,7
31 Las Viñas 07-05-2026 07:30 7,6 78 0 0 139 0 1027,8
30 Las Viñas 07-05-2026 07:15 7,7 78 0 0 139 0 1027,8
29 Las Viñas 07-05-2026 07:00 7,7 78 0 0 139 0 1027,8
28 Las Viñas 07-05-2026 06:45 7,7 78 0 0 139 0 1027,6
27 Las Viñas 07-05-2026 06:30 7,8 78 0,2 0 139 0 1027,4
26 Las Viñas 07-05-2026 06:15 7,8 78 0 0 175 0 1027,7
25 Las Viñas 07-05-2026 06:00 7,8 78 0 0 216 0 1027,4
24 Las Viñas 07-05-2026 05:45 7,8 79 0 0 216 0 1027,1
23 Las Viñas 07-05-2026 05:30 7,8 79 0,4 0 216 0 1026,9
22 Las Viñas 07-05-2026 05:15 8 78 0 0 166 0 1027
21 Las Viñas 07-05-2026 05:00 8 78 0,6 0 166 0 1026,7
20 Las Viñas 07-05-2026 04:45 8,1 78 0,2 0 166 0 1026,5
19 Las Viñas 07-05-2026 04:30 8 78 0 0 166 0 1026,3
18 Las Viñas 07-05-2026 04:15 8 78 0 0 166 0 1026,4
17 Las Viñas 07-05-2026 04:00 8 78 0 0 166 0 1026,3
16 Las Viñas 07-05-2026 03:45 8,1 78 0 0 166 0 1026,1
15 Las Viñas 07-05-2026 03:30 8 78 0 0 166 0 1025,9
14 Las Viñas 07-05-2026 03:15 7,9 78 0 0 166 0 1025,8
13 Las Viñas 07-05-2026 03:00 7,8 79 0 0 166 0 1025,8
12 Las Viñas 07-05-2026 02:45 7,7 79 0 0 166 0 1025,9
11 Las Viñas 07-05-2026 02:30 7,7 79 0 0 166 0 1025,7
10 Las Viñas 07-05-2026 02:15 7,5 79 0 0 166 0 1025,7
9 Las Viñas 07-05-2026 02:00 7,4 79 0 0 166 0 1025,7
8 Las Viñas 07-05-2026 01:45 7,3 79 0 0 166 0 1025,4
7 Las Viñas 07-05-2026 01:30 7 80 0 0 166 0 1025,3
6 Las Viñas 07-05-2026 01:15 6,8 81 0 0 166 0 1025,2
5 Las Viñas 07-05-2026 01:00 6,8 82 0 0 166 0 1025,1
4 Las Viñas 07-05-2026 00:45 6,6 82 0 0 166 0 1024,7
3 Las Viñas 07-05-2026 00:30 6,2 85 0 0 166 0 1024,9
2 Las Viñas 07-05-2026 00:15 6,3 86 0 0 166 0 1024,9
1 Las Viñas 07-05-2026 00:00 6,6 86 0 0 166 0 1024,7